Volver al catálogo

STARLINK-35348

ActivoComunicacionesVLEO
NORAD 65904·PAYLOAD·🇺🇸 United States

Lanzado Oct 7, 2025 desde Cape Canaveral Space Force Station

Loading…

Próximos Pases (próximas 24 horas)

TLE

ActualizadoSource: CelesTrak SupGP

Época: Sep 14, 2026, 21:24 UTC

1 65904C 25224Y   26257.89215278  .00025674  00000+0  75833-3 0  2572
2 65904  53.1577 208.0432 0001309  89.2730 323.1241 15.34386482    16

Sigue STARLINK-35348 en tiempo real con AllMySat

Download on the App Store